Location: Newark
(42.8481°N, 0.4872°E)
Time: 22:47:37
(UTC+00:00)

Vanguard 2 - Pass Details

Date: 04 November 2020
Orbit: 554 x 2937 km, 32.9° (Epoch: 29 November)

Event Time Altitude Azimuth Distance (km) Brightness Sun altitude
Rises 20:01:07 0° 261° (W) 4,909 12.5 -36.0°
Reaches altitude 10° 20:03:59 10° 257° (WSW) 4,197 11.9 -36.5°
Maximum altitude 20:15:48 56° 183° (S) 2,821 10.1 -38.6°
Enters shadow 20:17:34 54° 162° (SSE) 2,951 10.1 -38.9°
Drops below altitude 10° 20:32:29 10° 112° (ESE) 5,750 - -41.5°
Sets 20:37:11 0° 109° (ESE) 6,783 - -42.3°
